Vorticity
1 6 3 6 14 10 6 3 2 9 12 8 3 4 4 6 7 5 5 3 5 7 5 9 7 1 2 1 3 6 8 10 8 8 10 12 11 8 6 3 4 4 4 4 4 4 3 2 3 4 5 4 4 4 4 3 4 5 6 7 7 7 7 7 7 6 5 5 6 6 5 5 6 6 5 6 6 6 4 4 4 4 4 5 5 6 6 5 5 4 4 5 5 7 8 8 9
2 0 -3 6 11 9 10 7 3 3 10 9 2 6 6 4 7 7 7 4 2 2 1 6 8 4 5 5 2 3 5 9 8 7 8 9 11 11 11 8 6 5 2 1 0 0 0 -1 -0 1 2 3 3 3 3 4 4 4 6 6 6 7 7 8 7 6 5 5 7 6 5 6 6 6 6 6 7 7 6 5 4 4 4 4 5 5 5 6 5 4 4 5 4 6 8 9 9
0 -2 -4 1 4 4 7 11 7 3 15 10 1 8 9 9 9 10 9 6 4 1 -1 1 6 3 4 7 5 4 3 7 8 5 5 7 9 10 11 13 11 10 7 4 4 2 3 3 3 2 3 4 4 4 4 4 5 5 6 7 7 8 8 9 8 7 6 6 6 6 6 5 6 6 6 6 7 7 6 5 5 4 3 4 4 4 4 4 4 4 4 4 4 5 8 10 10
0 0 -2 -5 -1 3 1 9 6 4 23 11 -1 7 9 13 11 13 13 10 9 2 1 2 8 5 -0 5 6 5 5 6 10 6 4 8 9 8 7 10 12 12 11 8 8 8 6 7 7 7 7 8 7 6 6 6 6 6 6 7 7 7 8 9 8 7 7 6 6 6 6 5 5 7 7 6 6 7 6 6 6 5 4 4 4 4 4 4 5 4 4 4 4 5 6 9 12
0 -2 2 2 -2 0 -0 7 2 1 24 9 -6 3 5 9 9 12 13 10 8 1 3 6 13 12 3 7 8 6 9 6 10 11 5 9 11 8 7 8 10 9 10 9 8 8 8 8 9 10 11 11 11 9 8 8 7 6 7 7 7 6 7 7 7 6 5 5 5 6 6 5 5 7 7 6 7 6 6 6 6 6 5 4 4 4 4 4 5 4 4 4 4 5 6 8 12
1 3 8 13 5 3 3 6 3 -1 13 6 -3 2 1 5 8 12 12 9 7 3 5 6 11 16 10 11 12 8 11 9 7 12 7 8 12 11 12 10 10 8 7 7 7 6 7 9 8 9 10 9 9 9 8 7 7 6 6 6 6 5 6 6 6 6 6 5 5 6 5 5 6 6 6 6 7 7 6 6 6 6 5 6 5 5 4 5 4 4 4 4 4 4 6 7 10
4 4 3 9 7 7 3 1 3 -1 3 8 10 4 -4 2 8 14 13 5 5 5 5 4 4 12 12 9 15 9 7 10 6 9 9 8 10 11 17 17 13 10 8 7 9 8 7 8 8 8 8 8 7 8 7 6 7 7 6 5 5 5 6 7 6 6 6 5 5 5 4 4 5 5 6 6 6 7 7 6 6 6 6 6 6 6 5 5 5 4 4 3 4 4 5 6 7
9 -1 -3 1 1 4 3 2 2 -1 -0 5 13 5 -6 -0 4 11 13 2 1 3 -1 1 0 7 12 7 15 13 6 8 5 5 9 10 10 8 12 19 18 14 13 13 12 11 8 8 8 8 7 7 7 7 8 7 7 7 7 6 6 6 6 7 6 6 5 5 5 4 4 4 5 5 5 6 6 6 6 6 6 7 7 6 6 7 6 6 6 5 4 4 3 4 5 5 5
4 -2 0 -2 -3 3 4 4 1 1 1 -0 5 3 -3 -2 -1 8 9 -2 -1 3 -2 -0 2 3 6 6 11 15 10 9 6 3 5 7 11 10 6 10 15 14 14 14 13 12 10 10 8 8 6 6 7 7 7 9 9 10 9 8 8 8 8 8 7 7 6 6 6 5 5 4 5 5 5 5 6 5 5 6 5 6 7 7 7 7 6 6 6 6 5 5 4 4 4 5 5
1 -2 1 -1 1 4 3 3 -0 -1 1 -0 1 0 -0 -3 -4 8 9 -3 -3 4 2 1 5 5 5 4 5 10 9 9 8 6 6 5 6 10 9 5 7 8 8 9 9 10 10 10 10 10 9 7 8 8 8 9 9 8 9 9 8 8 8 9 8 9 8 7 7 7 7 6 6 5 6 6 5 5 5 5 5 5 6 6 7 6 7 6 6 6 5 5 5 4 4 5 5
8 -0 -2 0 5 5 2 -3 -7 -4 -1 0 1 0 3 3 0 7 8 2 -4 -3 -1 -2 4 9 10 6 4 5 4 5 5 3 6 6 5 6 9 7 5 5 4 5 5 6 7 7 8 10 10 9 9 10 9 8 7 7 8 9 10 10 9 10 10 10 9 8 7 7 6 5 5 5 5 5 5 5 5 5 5 5 5 5 5 5 6 6 6 6 5 5 5 5 5 5 4
9 5 1 -2 3 7 2 -6 -6 -1 1 1 3 2 7 10 6 4 6 5 -4 -9 -6 -7 -1 11 14 9 6 6 2 3 3 1 3 3 4 4 7 7 6 6 4 2 2 2 3 2 3 4 6 7 7 8 8 7 7 8 8 9 10 10 9 8 10 10 11 11 11 10 9 7 6 6 5 5 6 6 6 5 5 5 5 4 4 4 5 5 5 5 5 5 6 6 6 6 5
12 5 -2 -6 -1 2 -1 -2 -0 -3 -4 -0 0 -1 1 2 3 6 4 3 -1 -4 -1 -7 -4 10 14 11 6 7 4 2 4 3 4 4 4 3 5 6 4 7 8 6 4 3 3 2 2 2 3 4 4 4 7 7 6 7 8 8 8 8 7 6 7 8 9 10 11 12 11 11 10 9 7 7 6 7 7 7 7 6 5 4 3 3 4 4 4 3 3 4 6 7 6 7 7
8 2 -1 2 1 -2 0 3 3 -5 -6 1 -0 -3 -1 -3 3 10 1 2 5 1 4 -2 -2 9 14 13 6 5 6 3 3 3 4 6 6 4 4 5 3 3 6 8 8 7 7 6 4 4 3 3 3 3 4 4 3 3 3 2 2 3 4 5 5 5 4 4 5 8 10 11 11 12 12 10 9 8 7 8 8 7 7 5 4 3 3 3 3 3 3 4 5 5 5 6 7
-2 4 8 10 3 -0 1 -1 4 -0 -6 -1 -1 -4 -1 5 8 6 0 5 6 -1 5 3 3 12 13 16 9 1 5 5 2 2 2 4 6 7 5 5 4 2 2 4 5 8 8 8 8 8 7 5 4 4 4 5 4 2 0 -1 -1 1 2 3 3 3 3 2 1 2 3 4 6 9 11 12 13 12 10 8 7 7 7 7 6 5 5 4 2 2 3 4 4 4 5 5 6
-9 5 7 2 -3 -0 -6 -11 5 3 -5 -0 1 0 -2 6 12 3 0 2 -2 -2 7 7 8 15 12 16 15 2 4 7 3 4 4 5 6 4 4 5 5 5 4 3 3 4 5 6 6 8 9 7 5 5 5 6 6 3 3 3 2 3 3 2 3 4 4 4 4 2 -0 -2 0 2 3 5 8 12 12 11 10 7 6 5 6 6 5 5 4 3 3 4 4 4 4 4 4
-6 3 2 -1 -4 2 -3 -9 3 -1 -2 3 4 8 -3 -1 10 2 -1 0 -1 3 9 8 8 12 8 13 20 8 4 9 6 5 5 5 8 5 3 3 5 6 4 4 3 0 2 3 4 5 6 7 6 5 3 4 7 7 5 4 4 5 5 5 4 4 4 4 4 4 3 -0 -1 -0 0 1 2 6 8 9 11 13 13 7 4 5 5 5 4 4 4 4 4 4 4 4 3
-0 -4 -4 -2 -6 3 2 -4 4 0 2 4 2 6 -2 -2 5 0 1 7 9 5 6 6 3 7 5 9 25 16 4 10 9 8 6 2 6 8 4 2 3 4 3 3 1 -1 0 1 2 2 3 4 4 4 5 7 5 4 6 3 3 4 4 5 4 3 2 2 3 4 6 5 3 2 2 1 1 2 5 7 7 10 19 20 10 4 4 4 3 4 4 4 5 5 4 3 2
6 2 -2 -8 -13 1 6 2 6 2 1 1 -3 -2 -3 -1 2 1 3 9 10 5 7 5 1 8 4 5 26 23 8 9 8 6 7 3 1 4 6 5 2 2 4 5 3 3 2 1 2 3 4 4 3 2 4 9 6 3 7 7 5 4 3 3 4 5 5 4 3 3 6 8 8 7 6 5 3 2 4 5 3 3 12 22 21 12 7 6 5 4 4 4 4 5 5 5 4
6 -2 -2 -6 -10 5 10 7 4 -1 -1 -1 -2 2 4 4 6 6 4 6 9 8 9 5 1 8 6 5 21 23 12 7 5 5 8 7 4 2 6 5 2 3 4 6 6 6 4 3 3 3 4 2 4 3 -1 5 5 1 6 8 9 8 6 7 7 7 8 8 6 4 6 8 8 7 7 8 7 4 4 5 3 4 5 10 15 15 12 10 9 8 6 5 3 4 4 5 5
2 -2 9 14 7 4 3 4 8 8 5 2 5 13 15 11 11 10 7 7 9 9 7 4 3 6 7 4 12 17 13 8 3 3 4 4 4 5 6 5 5 5 4 5 5 5 5 4 4 3 5 2 2 4 0 2 1 -1 4 6 6 8 9 9 9 9 8 7 6 2 5 9 6 5 6 6 6 4 4 6 4 4 6 6 7 7 8 10 11 13 12 9 5 3 4 4 4
13 18 18 18 12 5 7 10 12 13 11 12 15 17 16 11 8 9 12 12 9 8 5 4 3 5 7 2 5 12 12 12 8 4 2 -0 1 4 6 7 7 5 4 4 3 4 4 3 3 3 4 4 3 2 1 1 2 2 3 0 0 4 7 7 4 5 6 6 6 0 2 10 7 4 6 6 6 4 3 5 6 4 3 5 7 6 6 8 12 16 20 20 12 5 4 5 4
14 17 5 2 3 -1 11 20 14 12 13 17 20 21 17 11 11 13 16 16 9 5 4 4 3 3 4 3 4 5 6 11 12 9 6 3 3 4 4 6 7 6 3 2 3 3 1 0 2 2 2 3 3 1 1 2 2 1 3 3 3 4 2 1 1 0 3 4 5 2 2 7 7 5 7 9 8 7 6 5 5 4 1 -0 3 6 5 5 11 16 21 26 23 13 5 4 4
8 9 1 2 -2 -14 3 25 21 12 7 11 20 22 14 9 16 22 17 12 6 1 4 5 5 4 3 5 4 2 3 4 9 10 7 7 4 2 4 6 8 7 3 2 3 2 1 -0 -1 0 0 2 1 -2 2 6 3 -1 3 5 2 4 1 -0 2 1 4 5 4 4 2 3 6 5 5 9 9 8 9 8 7 5 2 0 0 3 2 3 7 13 18 23 26 22 12 5 3
8 6 3 8 0 -16 -3 20 17 11 12 12 13 7 6 6 6 15 13 7 7 4 7 8 7 8 5 7 4 2 4 0 4 7 5 6 3 4 6 5 7 8 6 3 1 1 2 1 0 2 2 2 1 1 3 2 2 2 11 18 6 -2 -0 1 3 2 2 2 1 1 2 4 6 4 1 4 8 8 8 9 10 8 5 4 3 3 1 -0 1 6 13 20 25 24 20 12 6
7 7 9 16 7 -4 3 14 9 10 14 5 -2 -5 5 15 1 6 13 5 8 10 11 11 6 8 7 8 5 5 5 1 5 7 6 5 3 9 7 1 3 6 5 3 4 3 1 1 1 1 1 2 -0 1 2 -1 -2 -4 7 26 19 4 2 1 -0 0 1 1 2 2 4 8 5 4 2 2 7 12 11 10 11 10 9 9 9 7 4 0 -2 -1 4 13 23 27 24 18 12
12 10 11 15 5 1 9 18 9 1 2 -8 -7 -3 4 19 10 7 17 8 7 11 12 11 7 11 12 10 10 9 10 10 10 8 7 4 1 6 7 4 5 5 4 3 3 1 0 2 -0 -1 -1 0 2 0 -0 -0 2 -1 2 13 12 10 11 7 1 -1 0 2 9 9 7 8 4 4 5 2 8 14 13 10 6 4 7 10 13 12 7 2 -1 -3 -2 2 12 23 27 24 18
18 1 -2 9 7 2 8 24 14 -9 -1 -3 -9 -5 -1 16 16 11 20 16 13 13 10 13 12 15 15 13 13 12 14 16 13 10 9 8 4 5 9 10 7 6 5 -1 -2 -2 0 2 4 8 2 -3 2 7 7 7 11 6 2 3 0 2 8 10 8 4 -1 -1 7 10 7 7 4 5 7 3 6 11 9 2 -5 -4 2 6 9 12 10 4 1 -1 -2 -2 1 9 17 21 21
11 -6 -10 2 9 8 5 16 10 -8 4 4 -11 -6 3 13 16 14 17 15 15 14 11 14 16 14 11 13 17 15 13 11 10 10 10 10 9 9 11 11 10 9 3 -3 2 8 11 17 16 12 16 14 6 7 14 15 16 9 1 1 -4 -6 2 7 10 9 5 4 5 4 8 12 7 2 3 4 5 5 3 -2 -6 -4 2 5 6 9 10 7 4 2 -1 -1 -1 -0 4 9 14
3 -3 -6 -2 2 6 4 2 4 0 4 2 -8 -2 6 6 10 15 12 9 13 13 11 10 10 10 5 8 15 12 6 4 8 9 8 10 13 15 11 11 12 11 8 5 9 11 17 34 30 10 8 6 -4 -2 9 10 10 12 8 0 -9 -6 6 13 19 16 7 3 1 3 9 10 6 1 -0 1 4 6 4 1 1 3 5 7 5 7 11 10 6 4 2 1 -1 -1 -1 1 5
4 0 -2 -1 -0 2 2 -2 -0 2 1 -0 -3 -0 5 0 7 18 12 9 12 9 7 4 4 7 5 6 9 6 2 4 10 7 8 11 13 13 10 12 11 8 11 8 7 5 10 33 35 30 28 11 6 15 19 16 10 12 12 5 5 10 11 14 27 28 11 -1 2 14 15 6 3 3 2 1 1 3 4 1 0 2 7 7 3 5 13 14 9 5 3 1 1 1 0 1 3
6 3 2 1 -0 -2 -1 -1 -2 -1 2 1 -4 -2 4 1 10 20 13 11 11 4 5 6 6 9 8 9 9 8 8 7 8 7 10 11 10 12 10 12 10 6 6 2 10 8 8 29 21 17 35 28 22 18 10 11 7 5 7 9 18 16 4 3 13 18 11 3 7 14 13 14 18 13 7 4 2 0 -2 0 -4 -9 1 9 4 5 13 16 13 8 4 2 2 2 3 4 5
6 3 1 0 0 -3 -3 1 -3 -3 4 -1 -6 1 5 4 10 17 15 13 7 0 6 12 12 11 8 9 9 11 10 7 8 9 11 9 9 15 12 11 7 4 3 1 15 9 2 28 16 -9 5 12 12 9 4 6 2 2 2 1 7 3 -2 -0 1 4 5 4 7 3 1 13 23 22 16 6 4 5 1 3 -1 -9 3 12 3 3 13 17 16 11 7 5 3 2 4 5 6
10 5 0 1 2 3 1 2 -1 -2 3 -4 -5 4 1 2 10 15 17 12 3 0 8 11 9 8 8 8 9 12 11 9 10 11 11 7 7 10 8 10 7 3 6 2 8 7 -4 11 14 1 3 1 2 7 6 6 4 5 5 3 2 2 3 2 1 1 -2 2 11 6 0 3 4 10 18 14 10 12 15 15 8 3 12 15 2 1 13 16 13 12 8 7 6 3 3 4 8
9 7 6 4 4 10 5 3 2 -2 0 -6 -6 3 -2 1 14 16 14 10 4 3 7 7 3 6 9 8 9 11 10 9 8 8 9 7 7 8 6 8 8 3 6 4 0 4 3 4 5 6 6 2 4 6 4 6 4 -0 1 5 5 7 7 4 5 4 -3 2 16 15 9 6 2 1 8 12 12 13 17 13 4 4 10 12 6 4 14 15 7 6 7 7 8 5 2 3 6
1 -1 6 9 9 10 4 6 6 -3 -1 -3 -3 5 -3 2 17 14 9 8 4 5 7 5 2 6 7 6 7 7 8 8 6 7 7 7 7 8 8 6 7 6 5 6 5 4 5 5 6 5 6 6 6 6 7 8 8 4 3 5 6 9 8 0 2 7 2 1 10 15 11 8 8 10 8 3 4 11 15 10 5 8 6 4 6 7 14 14 8 7 6 5 6 3 1 3 5
4 -2 -5 2 5 2 4 10 5 -3 -0 -2 1 9 0 4 19 13 7 6 2 6 8 5 5 8 6 3 5 5 7 9 8 7 6 7 7 6 8 7 7 9 7 8 9 8 7 5 6 6 6 7 5 6 8 8 9 10 9 8 6 10 15 9 3 8 7 3 8 11 10 8 6 10 13 8 4 7 12 12 8 8 5 3 5 8 13 15 14 12 6 2 2 -2 -2 2 6
5 2 -7 -3 -1 -1 8 8 1 -3 -4 -2 2 6 6 15 21 11 9 7 -0 3 7 6 7 9 8 4 4 4 4 8 9 7 6 6 7 5 6 8 7 8 8 9 8 8 8 6 5 6 6 6 6 6 8 12 12 8 8 12 8 6 14 14 7 7 6 6 11 7 4 10 10 6 8 12 12 7 6 7 5 4 6 5 5 7 13 15 13 8 2 2 2 1 1 1 5
-2 4 3 1 -1 4 8 -0 2 3 -2 2 4 6 17 24 17 7 10 9 0 2 5 6 5 8 10 4 4 5 3 8 9 6 8 6 6 6 6 8 8 8 7 8 9 9 9 9 9 9 9 9 10 8 8 11 14 10 7 8 7 5 7 8 7 8 7 7 7 4 2 7 11 9 6 8 11 11 9 5 4 7 6 6 7 7 10 14 15 12 7 5 2 3 5 2 2
-4 5 8 4 1 8 8 -3 0 5 3 6 7 15 22 15 10 11 11 6 2 3 3 4 4 5 7 4 5 7 5 10 10 6 8 6 6 7 7 8 7 8 9 8 9 9 10 12 12 12 12 12 11 11 11 11 13 14 12 9 8 9 8 7 7 7 8 8 5 4 6 7 10 11 8 11 14 14 13 8 6 8 8 10 11 7 8 12 15 15 13 8 3 3 6 4 1
-2 -0 5 8 5 5 4 -3 -4 -2 1 6 9 14 11 2 9 16 11 3 2 4 4 5 5 3 4 5 7 6 4 9 8 6 6 5 7 7 6 7 6 7 7 6 6 6 7 7 8 10 10 10 10 10 10 10 10 10 10 9 9 9 9 9 10 9 8 9 9 8 6 6 12 16 13 12 12 9 8 10 9 7 7 10 14 12 9 10 12 12 11 7 3 4 6 4 1
1 -2 -1 5 5 0 -3 -4 -4 -5 -4 2 5 4 1 4 12 14 9 4 2 5 6 6 6 5 3 3 5 2 2 7 6 4 5 3 3 4 5 6 7 7 5 3 3 3 4 4 4 5 4 5 5 6 7 7 7 7 7 8 8 9 9 9 11 11 8 8 9 10 9 5 6 16 18 10 9 12 12 14 13 9 7 6 10 13 12 11 9 6 7 7 4 4 4 4 4
1 3 0 1 2 2 -0 -2 -2 -3 -2 2 3 2 4 11 16 13 8 6 6 5 4 4 4 4 2 -0 1 -0 1 6 6 4 4 3 3 4 8 8 8 8 4 2 3 4 4 4 3 4 3 3 2 2 4 5 6 7 9 9 9 9 7 8 9 7 6 6 5 6 12 13 6 9 13 10 8 9 10 13 10 4 6 7 5 8 15 17 12 10 11 9 6 5 5 6 6
1 0 1 4 2 3 2 -3 -4 -0 6 8 3 4 10 16 17 11 8 10 8 1 -0 1 0 2 2 -2 -1 3 4 6 6 5 4 4 4 6 9 10 9 7 2 1 3 4 5 5 5 6 5 5 5 4 3 4 5 5 7 7 7 7 6 6 6 5 4 5 5 4 7 13 13 10 11 11 9 6 5 10 12 6 3 10 12 10 13 12 10 12 12 8 9 9 8 7 7
6 -2 -2 1 0 1 -2 -7 -4 4 9 7 6 10 13 18 17 8 8 11 4 -2 -1 -1 -2 3 5 1 1 5 6 6 6 7 6 4 3 6 10 11 9 6 1 1 3 3 4 6 6 6 5 4 4 5 4 5 5 5 6 6 6 6 5 5 5 6 7 6 6 6 6 8 12 13 13 12 14 15 11 9 15 11 -2 1 11 10 9 11 11 11 8 10 11 8 5 4 5
12 6 -1 -3 -2 -1 -4 -5 -2 -1 1 4 8 10 9 14 15 6 8 9 -0 -2 0 -0 1 4 5 5 3 3 5 7 9 8 6 5 7 11 13 13 10 5 1 1 3 4 4 5 6 5 6 6 6 7 8 7 7 6 6 5 6 6 6 7 7 8 9 9 8 9 9 7 8 10 12 13 14 15 15 12 12 9 2 6 10 6 8 13 15 13 9 10 12 11 10 8 5
12 14 9 3 2 2 3 4 -5 -11 1 12 10 8 9 18 16 4 5 7 1 2 3 3 4 3 4 6 4 4 6 7 8 6 6 11 14 14 13 13 11 7 4 4 4 4 5 6 6 6 5 6 8 8 8 9 8 8 8 7 7 8 8 8 9 10 10 10 11 10 10 10 9 8 8 12 14 12 13 14 14 11 10 12 5 1 12 15 12 15 14 10 10 8 8 9 8
13 23 25 16 9 9 12 11 -2 -5 11 18 12 8 11 15 9 -1 2 5 4 6 5 3 3 3 5 6 4 5 6 4 4 3 8 13 10 6 8 11 10 9 7 6 5 5 6 7 7 7 8 9 11 11 10 11 10 10 10 10 9 8 9 9 9 10 10 10 10 9 9 10 11 11 10 10 14 15 12 12 18 19 14 11 3 0 8 6 2 10 15 15 13 6 4 8 9
10 17 27 24 13 6 7 10 7 11 18 12 6 9 11 9 3 -3 1 3 4 5 2 1 3 5 6 5 4 6 5 4 2 1 8 12 4 -1 5 10 10 10 8 6 5 4 5 7 7 8 9 10 10 9 9 10 11 12 11 10 11 10 9 10 10 11 11 10 11 10 10 10 10 12 13 12 12 15 16 15 20 23 18 14 12 12 12 7 4 9 13 13 11 10 12 13 8
8 7 13 16 11 5 6 11 11 14 16 6 0 5 8 8 3 -3 -1 2 3 3 3 5 7 7 7 5 5 6 5 4 1 0 6 10 3 -5 -0 8 10 9 8 5 4 4 6 8 9 9 10 9 8 7 9 11 12 13 12 11 11 11 10 10 10 11 11 11 11 12 11 11 12 13 14 14 14 14 15 10 8 14 16 11 8 9 12 11 10 12 14 10 6 8 13 15 11
11 9 7 8 11 11 12 13 10 13 14 6 2 4 5 7 4 -0 -1 0 3 4 6 8 7 5 5 3 4 5 5 4 1 0 4 9 7 -4 -5 5 10 7 6 4 3 5 9 10 11 11 11 8 6 7 10 12 13 13 12 12 11 11 10 9 8 9 10 12 12 13 13 12 12 14 14 15 16 16 16 10 3 3 7 8 7 5 4 5 7 11 14 13 11 11 12 15 13
10 9 9 7 8 9 10 11 12 15 16 11 9 9 6 5 5 3 1 -1 0 3 6 7 7 6 3 3 4 3 4 5 4 2 4 10 9 -3 -6 3 9 7 5 3 3 7 9 10 11 12 11 8 7 9 10 10 10 10 10 11 11 12 11 11 12 12 12 12 13 13 15 15 14 14 15 15 15 15 15 14 11 5 2 4 8 10 9 9 11 12 11 9 10 12 12 13 14
10 8 9 7 7 8 5 7 11 10 10 11 12 10 7 5 4 3 3 1 -0 2 4 4 6 6 4 4 4 3 5 7 4 2 6 13 8 -2 -3 4 8 8 5 2 4 8 9 10 11 11 10 8 8 10 10 10 10 10 11 12 12 13 13 14 15 15 15 14 14 14 15 17 17 16 16 16 17 18 16 15 13 11 9 9 9 11 13 13 13 13 8 6 11 12 10 12 15
13 13 10 6 9 9 2 -0 4 4 6 10 10 9 9 7 4 2 2 1 1 4 5 3 4 5 5 5 5 6 7 7 4 1 7 13 5 -2 2 5 8 8 3 1 6 10 9 9 10 11 9 8 9 10 10 10 9 9 11 12 13 13 13 15 16 17 17 15 14 14 15 15 16 15 14 16 18 20 19 16 13 11 12 11 12 13 13 12 12 13 11 9 13 11 5 8 13
14 21 17 8 6 8 6 4 3 2 7 13 13 12 11 8 6 6 4 1 3 10 9 5 5 5 4 4 6 8 9 7 4 1 7 9 2 1 5 5 8 7 -1 1 9 10 8 8 9 9 8 8 9 10 9 8 8 9 11 11 12 13 14 17 19 18 17 17 16 15 14 12 11 11 12 13 16 18 18 15 11 10 10 10 11 13 13 12 11 12 13 13 13 10 6 8 13
11 18 17 15 12 9 7 6 3 -2 2 13 15 13 14 12 9 7 1 -1 6 11 8 4 4 4 4 5 6 9 11 8 3 1 5 6 2 4 5 5 9 4 -3 4 10 8 7 8 8 7 7 8 8 9 9 8 8 9 10 10 11 12 15 18 18 17 16 16 16 14 12 11 9 9 9 10 13 17 20 17 12 10 11 12 12 12 13 14 12 9 9 10 12 12 10 11 13
13 8 3 10 15 15 13 11 6 -6 -5 9 10 9 16 16 10 6 2 5 9 7 4 4 4 4 4 4 5 10 12 7 2 2 6 5 3 4 4 8 9 1 -1 7 10 8 7 7 6 6 6 6 7 8 8 8 9 9 8 10 11 11 14 18 17 15 15 14 13 12 11 10 10 9 9 10 13 17 22 23 19 15 13 13 14 15 15 15 14 11 7 8 13 14 13 12 11
12 5 0 1 2 10 13 10 5 -6 -2 12 10 8 19 21 15 10 9 10 7 4 5 5 4 4 4 3 6 10 11 7 4 6 6 3 2 3 5 9 7 -1 1 9 9 8 8 6 6 6 5 6 6 7 8 7 8 9 8 10 12 11 14 19 17 14 13 12 11 11 11 11 12 12 12 13 16 18 21 24 23 19 15 13 15 17 17 16 16 15 11 12 15 16 15 15 13
Height
5910 5909 5909 5908 5907 5907 5907 5907 5907 5906 5906 5904 5903 5903 5903 5904 5905 5905 5904 5903 5903 5902 5901 5902 5902 5900 5900 5901 5900 5900 5901 5901 5901 5900 5900 5901 5901 5901 5901 5902 5903 5903 5903 5903 5904 5904 5904 5904 5904 5904 5903 5903 5903 5903 5904 5904 5905 5906 5906 5907 5907 5908 5908 5909 5910 5910 5910 5911 5911 5912 5912 5913 5913 5914 5914 5915 5915 5915 5915 5916 5916 5916 5916 5916 5916 5915 5915 5915 5915 5915 5915 5915 5915 5915 5916 5917 5917
5911 5910 5910 5909 5908 5908 5908 5907 5908 5909 5908 5905 5903 5904 5905 5906 5908 5907 5906 5905 5904 5904 5903 5903 5903 5902 5902 5903 5902 5902 5902 5903 5903 5901 5901 5902 5902 5902 5902 5903 5904 5904 5904 5904 5904 5904 5905 5905 5905 5905 5905 5905 5904 5905 5905 5906 5906 5907 5907 5908 5909 5909 5910 5910 5911 5911 5911 5912 5912 5912 5913 5914 5914 5915 5915 5916 5916 5917 5917 5917 5917 5917 5917 5917 5917 5916 5916 5916 5916 5916 5915 5915 5916 5916 5917 5918 5919
5912 5912 5911 5911 5910 5909 5908 5908 5909 5910 5910 5907 5906 5906 5907 5908 5909 5909 5908 5907 5906 5904 5904 5904 5905 5905 5905 5905 5904 5903 5903 5904 5904 5903 5901 5902 5903 5903 5903 5904 5904 5904 5904 5904 5904 5905 5905 5905 5905 5905 5905 5906 5906 5906 5906 5907 5907 5908 5909 5909 5910 5910 5911 5911 5912 5912 5913 5913 5913 5914 5914 5915 5915 5916 5916 5917 5917 5918 5918 5918 5918 5918 5918 5918 5918 5918 5918 5917 5917 5916 5916 5916 5916 5917 5918 5919 5919
5914 5914 5913 5912 5911 5910 5909 5909 5909 5910 5911 5910 5909 5908 5909 5910 5910 5909 5909 5908 5906 5905 5905 5906 5908 5908 5906 5906 5906 5905 5904 5905 5905 5904 5901 5902 5904 5904 5904 5905 5905 5905 5905 5905 5905 5905 5905 5905 5905 5906 5906 5906 5907 5907 5908 5908 5909 5909 5909 5910 5910 5911 5912 5912 5912 5913 5913 5913 5914 5914 5915 5916 5916 5917 5917 5918 5918 5918 5919 5919 5919 5919 5919 5919 5919 5919 5919 5918 5918 5917 5917 5917 5917 5918 5919 5919 5920
5915 5915 5914 5913 5912 5912 5911 5910 5910 5911 5912 5912 5912 5910 5911 5912 5911 5911 5910 5909 5908 5908 5908 5909 5911 5910 5908 5908 5908 5907 5907 5906 5905 5904 5902 5903 5905 5905 5905 5905 5906 5906 5906 5906 5906 5906 5906 5906 5906 5906 5906 5907 5907 5908 5908 5909 5909 5910 5910 5910 5911 5911 5912 5912 5912 5912 5913 5913 5914 5915 5916 5916 5917 5918 5918 5918 5919 5919 5919 5920 5920 5920 5920 5920 5919 5920 5920 5919 5919 5919 5918 5918 5918 5918 5919 5920 5921
5917 5916 5915 5915 5914 5913 5912 5911 5911 5912 5912 5913 5914 5913 5913 5913 5913 5913 5912 5912 5911 5910 5911 5911 5911 5911 5910 5910 5910 5909 5909 5907 5906 5905 5904 5905 5906 5906 5906 5906 5906 5906 5906 5906 5906 5906 5906 5907 5906 5907 5907 5907 5907 5908 5909 5909 5910 5910 5910 5911 5911 5911 5911 5912 5912 5912 5913 5913 5914 5915 5916 5916 5917 5918 5918 5919 5919 5920 5920 5920 5920 5920 5920 5920 5920 5920 5920 5920 5920 5920 5920 5919 5919 5920 5920 5920 5921
5919 5918 5917 5916 5915 5914 5913 5913 5912 5913 5913 5913 5915 5915 5915 5915 5915 5915 5915 5914 5913 5912 5913 5913 5912 5913 5913 5912 5912 5911 5910 5909 5907 5906 5906 5907 5907 5907 5907 5907 5907 5906 5906 5906 5906 5906 5907 5907 5907 5907 5907 5907 5908 5908 5909 5910 5910 5910 5911 5911 5911 5912 5912 5912 5912 5912 5913 5914 5914 5915 5916 5917 5917 5918 5919 5919 5920 5920 5920 5920 5921 5921 5921 5921 5921 5921 5921 5921 5921 5921 5921 5920 5921 5921 5921 5922 5922
5920 5920 5918 5917 5916 5915 5914 5914 5913 5913 5913 5913 5916 5916 5916 5916 5916 5917 5916 5916 5916 5915 5915 5915 5914 5915 5916 5913 5913 5913 5911 5910 5908 5908 5908 5908 5909 5908 5908 5908 5908 5907 5907 5907 5907 5907 5907 5908 5908 5908 5908 5909 5909 5909 5910 5910 5911 5911 5911 5911 5911 5912 5912 5912 5912 5913 5913 5914 5915 5915 5916 5917 5917 5918 5919 5919 5920 5920 5921 5921 5921 5921 5921 5921 5921 5921 5921 5921 5921 5921 5921 5921 5922 5922 5923 5923 5924
5921 5921 5919 5918 5917 5916 5915 5914 5914 5914 5913 5915 5917 5918 5918 5918 5917 5918 5919 5919 5918 5918 5918 5918 5916 5917 5917 5915 5915 5914 5913 5912 5910 5910 5910 5910 5910 5910 5910 5910 5909 5908 5908 5908 5908 5909 5909 5909 5910 5910 5910 5910 5910 5911 5911 5911 5911 5912 5912 5912 5912 5912 5912 5912 5913 5913 5913 5914 5915 5915 5916 5917 5917 5918 5919 5919 5920 5920 5921 5921 5921 5922 5922 5922 5922 5921 5921 5921 5921 5921 5921 5921 5922 5922 5923 5924 5925
5922 5922 5921 5920 5918 5917 5916 5915 5915 5914 5914 5916 5918 5918 5919 5919 5919 5919 5921 5921 5920 5920 5920 5920 5918 5918 5918 5917 5917 5916 5915 5914 5912 5912 5912 5912 5912 5912 5912 5911 5911 5910 5910 5910 5910 5910 5911 5911 5911 5912 5912 5912 5912 5912 5912 5912 5912 5913 5913 5913 5913 5913 5913 5913 5913 5914 5914 5914 5915 5915 5916 5917 5917 5918 5918 5919 5919 5920 5920 5921 5921 5922 5922 5922 5922 5921 5921 5921 5921 5921 5921 5921 5921 5922 5923 5924 5925
5923 5923 5922 5921 5919 5917 5916 5915 5915 5915 5915 5917 5918 5919 5919 5920 5920 5921 5922 5923 5922 5921 5922 5921 5920 5920 5919 5918 5918 5917 5916 5916 5915 5914 5913 5913 5913 5913 5913 5912 5912 5912 5911 5911 5911 5911 5912 5912 5913 5913 5913 5914 5914 5914 5914 5914 5914 5914 5914 5914 5914 5913 5913 5913 5913 5914 5914 5915 5915 5915 5916 5916 5917 5917 5918 5918 5919 5919 5920 5920 5921 5921 5922 5922 5921 5921 5921 5921 5921 5921 5921 5921 5921 5921 5922 5924 5925
5924 5924 5923 5921 5919 5918 5917 5916 5916 5916 5916 5918 5919 5920 5920 5921 5922 5923 5923 5923 5923 5922 5922 5921 5921 5921 5921 5920 5919 5919 5918 5917 5917 5916 5915 5915 5915 5914 5914 5913 5913 5913 5913 5912 5913 5913 5913 5913 5914 5914 5915 5915 5915 5915 5915 5914 5914 5915 5915 5915 5915 5914 5914 5914 5914 5914 5914 5915 5915 5915 5916 5917 5917 5917 5918 5918 5919 5919 5919 5920 5920 5921 5921 5921 5920 5921 5921 5921 5920 5920 5921 5921 5921 5921 5922 5923 5925
5924 5924 5923 5922 5920 5918 5918 5918 5917 5917 5917 5919 5920 5921 5921 5922 5923 5924 5924 5924 5924 5923 5922 5922 5921 5921 5921 5921 5920 5919 5919 5918 5918 5917 5917 5916 5916 5915 5915 5914 5914 5914 5914 5914 5914 5914 5915 5915 5915 5915 5916 5916 5915 5915 5915 5915 5915 5915 5916 5916 5916 5916 5915 5915 5915 5915 5915 5915 5915 5916 5916 5916 5917 5917 5917 5918 5918 5919 5919 5919 5920 5920 5920 5920 5919 5920 5920 5920 5920 5920 5920 5920 5920 5920 5921 5922 5924
5925 5924 5923 5922 5920 5919 5919 5919 5919 5919 5919 5920 5921 5921 5922 5923 5924 5925 5925 5924 5924 5924 5923 5922 5922 5922 5921 5921 5921 5920 5920 5919 5919 5918 5918 5918 5917 5917 5916 5916 5915 5915 5915 5915 5916 5916 5916 5916 5916 5916 5916 5916 5916 5916 5916 5916 5916 5916 5916 5916 5917 5917 5916 5916 5916 5916 5916 5916 5916 5916 5916 5916 5917 5917 5917 5917 5918 5918 5918 5919 5919 5919 5919 5919 5919 5919 5918 5918 5919 5919 5920 5920 5919 5919 5920 5921 5923
5924 5924 5923 5922 5921 5921 5921 5921 5922 5922 5922 5921 5922 5922 5923 5924 5925 5925 5925 5925 5924 5924 5923 5923 5923 5922 5922 5922 5921 5920 5920 5920 5919 5919 5918 5918 5918 5917 5917 5917 5917 5916 5916 5917 5917 5917 5917 5917 5917 5916 5917 5917 5917 5917 5917 5917 5917 5917 5917 5917 5917 5917 5917 5917 5917 5917 5917 5917 5917 5917 5916 5916 5916 5917 5917 5917 5917 5917 5918 5918 5918 5918 5918 5918 5918 5917 5917 5917 5917 5918 5918 5919 5919 5919 5919 5920 5922
5924 5923 5923 5923 5923 5922 5922 5923 5923 5923 5923 5923 5923 5923 5924 5925 5926 5926 5925 5925 5924 5924 5924 5923 5923 5923 5922 5922 5922 5921 5920 5919 5919 5919 5918 5918 5918 5918 5918 5918 5918 5917 5917 5917 5917 5917 5917 5917 5917 5917 5917 5917 5917 5917 5917 5917 5917 5917 5918 5918 5918 5918 5918 5918 5918 5918 5917 5917 5917 5917 5917 5917 5917 5917 5917 5916 5917 5917 5917 5917 5916 5916 5916 5916 5916 5916 5916 5916 5916 5917 5917 5917 5918 5918 5917 5918 5920
5924 5924 5924 5924 5923 5923 5923 5924 5924 5924 5923 5923 5924 5924 5925 5926 5926 5926 5925 5924 5924 5924 5923 5923 5923 5923 5922 5922 5922 5922 5920 5919 5919 5919 5918 5919 5919 5919 5918 5918 5918 5918 5918 5917 5917 5917 5917 5917 5917 5917 5917 5917 5917 5917 5917 5917 5918 5918 5918 5919 5919 5919 5918 5918 5918 5918 5917 5917 5917 5917 5917 5917 5917 5917 5917 5916 5916 5916 5916 5916 5915 5915 5915 5915 5915 5915 5915 5915 5915 5915 5916 5916 5916 5917 5916 5917 5918
5924 5924 5924 5924 5923 5922 5923 5924 5924 5925 5925 5925 5925 5926 5926 5926 5926 5925 5925 5924 5924 5924 5923 5922 5922 5922 5922 5922 5923 5922 5921 5920 5919 5919 5919 5919 5919 5919 5919 5919 5919 5918 5918 5918 5917 5917 5917 5917 5917 5917 5917 5917 5917 5917 5918 5918 5918 5918 5919 5919 5919 5919 5918 5918 5917 5917 5917 5917 5917 5917 5917 5917 5917 5917 5917 5917 5916 5916 5916 5915 5915 5914 5913 5913 5914 5914 5914 5914 5914 5914 5914 5914 5915 5916 5915 5916 5917
5924 5924 5924 5923 5923 5923 5924 5924 5925 5926 5926 5926 5927 5927 5927 5927 5926 5926 5925 5924 5924 5923 5922 5922 5922 5922 5921 5922 5923 5922 5921 5920 5919 5919 5919 5918 5918 5919 5919 5919 5919 5918 5918 5918 5918 5918 5918 5917 5917 5917 5917 5918 5918 5918 5918 5919 5919 5919 5919 5919 5919 5919 5918 5918 5917 5917 5917 5917 5917 5917 5917 5917 5917 5916 5916 5916 5916 5916 5915 5915 5914 5913 5913 5912 5912 5913 5913 5913 5913 5913 5913 5912 5913 5914 5914 5915 5915
5925 5925 5925 5924 5924 5924 5924 5924 5926 5926 5927 5927 5928 5928 5927 5927 5926 5926 5925 5924 5922 5921 5921 5921 5921 5921 5922 5922 5923 5922 5921 5921 5920 5919 5919 5918 5918 5918 5918 5918 5918 5918 5918 5918 5918 5918 5918 5918 5918 5918 5918 5918 5918 5918 5919 5919 5919 5920 5920 5920 5919 5919 5918 5918 5917 5917 5917 5917 5917 5916 5916 5916 5916 5916 5915 5915 5915 5915 5914 5914 5914 5913 5912 5912 5911 5912 5912 5912 5912 5912 5911 5911 5911 5912 5913 5913 5914
5925 5926 5926 5925 5925 5925 5925 5925 5926 5927 5927 5927 5928 5927 5927 5927 5926 5925 5925 5924 5922 5921 5921 5922 5921 5921 5921 5922 5922 5922 5922 5921 5920 5920 5919 5918 5918 5918 5918 5918 5918 5918 5918 5918 5918 5918 5918 5918 5919 5919 5918 5918 5918 5919 5919 5919 5919 5919 5919 5919 5918 5918 5918 5918 5917 5917 5916 5916 5915 5915 5915 5915 5915 5915 5914 5914 5913 5913 5913 5913 5913 5912 5911 5911 5911 5910 5910 5910 5910 5910 5910 5909 5909 5910 5911 5911 5912
5926 5926 5925 5925 5925 5926 5926 5926 5927 5927 5927 5927 5927 5927 5927 5927 5927 5926 5925 5924 5923 5922 5922 5922 5921 5921 5921 5921 5922 5922 5921 5921 5920 5920 5919 5918 5918 5918 5918 5918 5918 5918 5918 5918 5918 5918 5918 5918 5918 5918 5918 5918 5919 5918 5918 5918 5918 5917 5917 5917 5917 5917 5917 5916 5916 5915 5915 5914 5914 5914 5914 5914 5913 5913 5913 5912 5912 5911 5911 5911 5911 5911 5910 5910 5909 5909 5909 5909 5908 5907 5907 5907 5907 5908 5909 5909 5910
5926 5925 5925 5925 5926 5927 5927 5926 5927 5927 5927 5927 5928 5928 5928 5928 5928 5927 5926 5925 5923 5922 5922 5921 5921 5921 5920 5920 5921 5921 5921 5921 5920 5919 5919 5918 5917 5917 5918 5918 5918 5918 5917 5917 5917 5917 5917 5917 5917 5918 5918 5918 5918 5918 5917 5916 5915 5915 5915 5915 5915 5915 5915 5914 5914 5914 5913 5912 5912 5912 5912 5912 5912 5912 5911 5911 5910 5910 5910 5910 5909 5909 5909 5908 5908 5908 5908 5907 5907 5906 5905 5904 5904 5905 5907 5908 5908
5925 5924 5924 5926 5927 5927 5927 5927 5927 5927 5928 5928 5928 5929 5930 5929 5928 5927 5926 5925 5924 5923 5922 5921 5921 5920 5920 5920 5920 5920 5920 5920 5919 5919 5918 5918 5917 5917 5917 5918 5918 5917 5917 5917 5917 5917 5917 5916 5917 5917 5918 5918 5917 5917 5915 5914 5914 5914 5914 5914 5914 5913 5913 5913 5912 5912 5911 5911 5910 5909 5909 5909 5910 5910 5909 5909 5909 5908 5908 5908 5908 5907 5907 5906 5907 5907 5907 5906 5905 5904 5903 5902 5901 5902 5904 5905 5906
5924 5924 5925 5926 5928 5928 5928 5929 5928 5928 5929 5929 5929 5930 5930 5930 5928 5927 5926 5925 5924 5923 5923 5922 5921 5920 5919 5919 5919 5919 5919 5919 5919 5918 5917 5917 5916 5916 5917 5917 5917 5917 5917 5917 5917 5917 5917 5916 5916 5917 5917 5917 5916 5915 5913 5913 5914 5915 5914 5914 5913 5912 5912 5912 5911 5910 5910 5909 5908 5907 5906 5906 5907 5907 5907 5907 5906 5906 5906 5906 5906 5906 5905 5904 5904 5905 5905 5905 5904 5903 5902 5901 5900 5900 5901 5902 5903
5924 5925 5925 5926 5928 5929 5930 5930 5930 5930 5930 5930 5930 5931 5930 5930 5929 5927 5925 5925 5924 5924 5923 5923 5922 5920 5919 5918 5918 5918 5919 5919 5918 5917 5916 5916 5916 5916 5916 5917 5917 5917 5917 5917 5917 5917 5917 5916 5917 5917 5917 5916 5914 5913 5913 5914 5914 5914 5913 5912 5912 5911 5911 5911 5910 5909 5907 5907 5906 5905 5905 5905 5905 5905 5905 5905 5904 5904 5903 5903 5903 5903 5903 5903 5902 5903 5903 5903 5902 5901 5900 5900 5899 5899 5898 5899 5900
5924 5925 5926 5927 5928 5930 5930 5931 5931 5931 5931 5930 5930 5930 5930 5929 5928 5926 5925 5925 5924 5925 5924 5923 5922 5920 5919 5918 5917 5917 5917 5918 5917 5917 5915 5915 5915 5915 5916 5917 5917 5916 5916 5916 5916 5916 5915 5915 5914 5915 5914 5913 5912 5912 5912 5913 5912 5912 5911 5910 5910 5910 5909 5909 5908 5907 5906 5905 5905 5904 5904 5904 5904 5903 5903 5902 5902 5901 5901 5901 5901 5901 5901 5901 5901 5901 5901 5901 5900 5900 5899 5899 5899 5898 5898 5897 5897
5924 5924 5925 5926 5928 5930 5930 5930 5931 5931 5931 5930 5930 5929 5929 5928 5926 5925 5925 5924 5924 5924 5924 5923 5921 5920 5919 5918 5917 5917 5916 5916 5916 5915 5914 5914 5914 5915 5915 5916 5915 5914 5914 5913 5913 5912 5912 5912 5912 5912 5911 5910 5910 5910 5910 5910 5910 5909 5908 5908 5907 5907 5907 5907 5906 5905 5904 5904 5904 5903 5903 5902 5902 5902 5901 5901 5900 5899 5899 5899 5899 5899 5899 5899 5898 5899 5899 5899 5899 5898 5897 5897 5897 5897 5897 5896 5896
5924 5924 5923 5924 5926 5928 5929 5929 5930 5930 5929 5929 5929 5929 5928 5927 5926 5925 5924 5924 5924 5924 5923 5922 5921 5920 5919 5919 5918 5917 5916 5915 5914 5914 5913 5912 5913 5914 5914 5915 5914 5913 5912 5911 5911 5910 5910 5910 5911 5911 5910 5910 5910 5909 5909 5909 5909 5908 5907 5905 5905 5904 5904 5903 5903 5903 5902 5902 5902 5901 5901 5901 5901 5900 5899 5899 5898 5897 5896 5896 5896 5896 5896 5896 5895 5895 5896 5896 5897 5896 5895 5895 5895 5896 5896 5895 5894
5924 5923 5923 5923 5924 5926 5927 5928 5928 5929 5929 5928 5928 5929 5928 5926 5925 5925 5924 5923 5923 5923 5923 5922 5921 5920 5920 5919 5919 5918 5917 5915 5914 5913 5913 5913 5914 5914 5914 5914 5913 5912 5910 5909 5909 5909 5909 5908 5909 5909 5909 5909 5909 5908 5908 5908 5907 5906 5904 5903 5902 5902 5902 5901 5900 5900 5901 5900 5898 5897 5896 5897 5898 5898 5898 5897 5897 5896 5895 5894 5894 5894 5893 5893 5893 5892 5892 5893 5894 5893 5893 5893 5893 5893 5894 5893 5893
5924 5923 5923 5923 5923 5924 5926 5926 5927 5928 5928 5928 5928 5928 5927 5925 5925 5924 5923 5923 5923 5923 5923 5922 5921 5920 5920 5920 5919 5918 5916 5915 5914 5914 5914 5915 5915 5915 5914 5913 5913 5911 5909 5908 5908 5908 5907 5905 5906 5907 5907 5907 5907 5906 5907 5906 5904 5903 5901 5900 5900 5901 5900 5899 5897 5897 5897 5896 5895 5894 5893 5892 5893 5894 5894 5894 5894 5894 5894 5893 5892 5891 5891 5890 5890 5890 5890 5890 5891 5891 5890 5890 5890 5891 5891 5891 5891
5924 5923 5923 5923 5922 5923 5925 5925 5926 5927 5927 5927 5928 5928 5927 5925 5924 5924 5923 5923 5923 5923 5923 5922 5921 5920 5919 5919 5918 5917 5916 5916 5915 5915 5915 5916 5916 5915 5914 5913 5913 5911 5909 5908 5907 5907 5906 5904 5903 5904 5905 5905 5905 5905 5905 5904 5902 5900 5899 5898 5898 5899 5898 5896 5894 5894 5895 5893 5892 5891 5890 5889 5890 5890 5889 5889 5890 5890 5890 5890 5890 5889 5888 5888 5887 5887 5887 5887 5887 5887 5887 5887 5888 5888 5888 5889 5889
5924 5923 5923 5923 5922 5922 5924 5924 5925 5927 5927 5927 5928 5928 5927 5926 5924 5924 5923 5923 5923 5923 5923 5922 5921 5920 5919 5918 5918 5917 5917 5916 5916 5916 5916 5916 5916 5915 5914 5914 5913 5911 5909 5907 5907 5906 5904 5903 5903 5903 5903 5903 5903 5903 5903 5902 5901 5899 5897 5895 5895 5896 5894 5892 5892 5892 5892 5891 5889 5888 5886 5885 5886 5887 5886 5886 5886 5886 5886 5886 5886 5886 5886 5885 5884 5884 5884 5884 5884 5884 5884 5884 5884 5885 5885 5886 5886
5923 5923 5923 5923 5922 5922 5923 5924 5924 5926 5926 5927 5928 5928 5928 5927 5925 5924 5924 5923 5923 5922 5922 5921 5920 5919 5918 5918 5917 5916 5916 5916 5916 5916 5916 5916 5916 5915 5914 5914 5913 5911 5909 5907 5906 5905 5904 5903 5902 5902 5902 5902 5901 5901 5901 5900 5898 5896 5894 5891 5891 5893 5892 5889 5887 5888 5889 5888 5886 5885 5885 5884 5883 5883 5883 5882 5882 5882 5883 5883 5883 5883 5883 5882 5881 5881 5881 5881 5881 5881 5881 5880 5880 5881 5882 5882 5882
5923 5923 5923 5923 5923 5923 5923 5923 5924 5925 5926 5927 5928 5928 5929 5929 5927 5925 5924 5923 5923 5922 5921 5921 5920 5919 5918 5917 5917 5916 5915 5915 5915 5915 5916 5915 5915 5915 5914 5914 5912 5910 5909 5907 5905 5905 5904 5903 5902 5901 5901 5900 5900 5899 5898 5898 5897 5895 5892 5889 5888 5889 5891 5888 5885 5885 5886 5886 5885 5883 5882 5882 5880 5879 5878 5879 5879 5878 5878 5879 5879 5879 5879 5878 5878 5878 5878 5878 5878 5877 5877 5877 5877 5877 5878 5878 5879
5923 5924 5924 5923 5922 5923 5924 5924 5924 5925 5925 5926 5927 5929 5930 5930 5928 5926 5925 5924 5923 5922 5922 5921 5920 5919 5918 5918 5917 5916 5915 5915 5914 5915 5915 5915 5915 5915 5914 5914 5913 5911 5909 5908 5906 5904 5903 5902 5901 5900 5899 5898 5897 5896 5895 5895 5894 5893 5890 5887 5884 5884 5886 5887 5885 5884 5883 5884 5884 5882 5879 5877 5875 5874 5873 5874 5876 5876 5875 5875 5875 5876 5875 5874 5874 5874 5874 5874 5874 5874 5874 5874 5874 5874 5874 5874 5874
5922 5922 5923 5923 5922 5923 5924 5924 5924 5924 5924 5925 5927 5929 5930 5930 5929 5927 5926 5925 5924 5923 5922 5922 5921 5920 5919 5918 5918 5917 5915 5914 5913 5913 5913 5913 5913 5914 5913 5912 5912 5910 5909 5907 5905 5904 5902 5901 5900 5899 5898 5896 5895 5894 5893 5892 5890 5889 5887 5885 5881 5878 5879 5882 5882 5881 5879 5879 5880 5880 5877 5874 5872 5871 5870 5870 5871 5872 5872 5872 5872 5872 5871 5870 5870 5870 5870 5870 5871 5871 5871 5871 5871 5870 5870 5870 5870
5921 5921 5921 5922 5923 5923 5923 5923 5923 5923 5924 5925 5926 5928 5929 5930 5929 5927 5925 5925 5924 5923 5922 5922 5921 5920 5919 5918 5917 5916 5915 5913 5911 5910 5910 5910 5910 5910 5910 5910 5909 5908 5907 5906 5904 5903 5902 5900 5898 5897 5896 5895 5893 5892 5891 5889 5887 5887 5886 5884 5881 5877 5876 5877 5877 5875 5873 5873 5873 5873 5873 5872 5870 5868 5868 5867 5868 5869 5868 5868 5867 5866 5866 5866 5865 5865 5866 5866 5867 5868 5867 5867 5867 5867 5866 5866 5866
5919 5919 5920 5922 5922 5922 5922 5922 5922 5923 5924 5925 5925 5926 5927 5928 5928 5927 5925 5924 5923 5922 5922 5921 5920 5919 5918 5917 5917 5916 5914 5913 5911 5910 5909 5908 5907 5907 5906 5907 5906 5906 5905 5904 5904 5903 5902 5900 5899 5897 5895 5894 5893 5892 5891 5888 5886 5885 5884 5882 5880 5878 5876 5873 5871 5869 5869 5869 5868 5867 5867 5867 5866 5865 5865 5864 5864 5864 5863 5862 5861 5861 5861 5861 5861 5861 5861 5862 5863 5863 5863 5863 5863 5863 5863 5863 5863
5919 5919 5920 5921 5921 5921 5921 5921 5922 5923 5924 5924 5924 5924 5925 5926 5926 5926 5925 5923 5923 5922 5921 5920 5919 5919 5918 5917 5916 5915 5914 5912 5911 5910 5909 5908 5907 5906 5905 5904 5904 5903 5903 5902 5902 5902 5901 5900 5899 5897 5895 5893 5891 5890 5888 5887 5885 5883 5882 5880 5878 5877 5875 5872 5869 5866 5864 5864 5863 5862 5861 5860 5860 5861 5860 5859 5858 5858 5858 5856 5856 5856 5856 5856 5857 5857 5857 5857 5858 5858 5858 5858 5858 5858 5859 5859 5859
5919 5919 5919 5920 5920 5920 5921 5922 5923 5923 5923 5924 5923 5923 5924 5925 5925 5925 5924 5923 5922 5921 5921 5920 5919 5918 5917 5916 5915 5914 5912 5911 5910 5909 5907 5907 5906 5905 5904 5902 5901 5900 5900 5899 5898 5898 5897 5896 5894 5893 5891 5889 5887 5885 5884 5883 5882 5880 5878 5877 5875 5873 5872 5870 5868 5866 5863 5860 5858 5857 5856 5855 5854 5854 5853 5852 5851 5852 5852 5851 5850 5850 5851 5851 5851 5852 5853 5853 5853 5853 5853 5853 5853 5853 5854 5854 5855
5919 5919 5919 5920 5919 5919 5920 5921 5921 5922 5922 5922 5922 5922 5922 5923 5924 5924 5924 5923 5922 5921 5920 5919 5919 5918 5917 5916 5914 5913 5911 5910 5908 5907 5906 5905 5904 5903 5902 5900 5899 5898 5897 5896 5894 5892 5891 5890 5888 5887 5885 5883 5881 5880 5878 5877 5876 5875 5874 5872 5871 5869 5868 5867 5865 5863 5861 5857 5855 5852 5851 5851 5850 5849 5848 5848 5847 5847 5847 5847 5847 5847 5847 5847 5847 5847 5848 5848 5848 5848 5847 5847 5848 5848 5849 5850 5852
5918 5918 5919 5919 5919 5919 5919 5920 5920 5920 5920 5920 5921 5921 5921 5921 5922 5923 5923 5922 5921 5921 5920 5919 5918 5917 5916 5915 5914 5913 5911 5909 5908 5907 5905 5904 5903 5901 5900 5899 5898 5897 5896 5894 5892 5890 5888 5886 5884 5882 5881 5879 5877 5875 5873 5872 5871 5870 5869 5868 5866 5865 5864 5862 5860 5857 5855 5853 5852 5849 5847 5846 5846 5844 5845 5845 5844 5844 5844 5844 5844 5844 5844 5844 5843 5842 5843 5843 5843 5843 5842 5842 5843 5845 5846 5847 5848
5918 5917 5918 5918 5918 5918 5918 5919 5919 5919 5919 5919 5920 5919 5919 5920 5921 5921 5922 5922 5921 5920 5919 5919 5918 5917 5916 5915 5913 5912 5910 5908 5907 5906 5905 5904 5903 5901 5899 5897 5896 5895 5894 5892 5890 5888 5887 5885 5883 5881 5879 5876 5874 5872 5869 5867 5865 5864 5862 5861 5860 5858 5857 5856 5855 5852 5850 5848 5847 5846 5844 5842 5841 5839 5839 5840 5841 5840 5841 5841 5840 5839 5839 5840 5839 5838 5838 5838 5839 5839 5838 5839 5840 5841 5842 5843 5843
5917 5917 5917 5917 5918 5918 5918 5918 5918 5918 5917 5918 5918 5918 5918 5919 5920 5920 5921 5921 5920 5919 5919 5918 5917 5916 5915 5914 5912 5911 5909 5907 5906 5905 5905 5903 5902 5899 5897 5895 5894 5892 5890 5888 5886 5885 5883 5882 5880 5878 5876 5873 5871 5869 5866 5863 5860 5858 5856 5855 5854 5852 5850 5849 5848 5846 5845 5843 5842 5841 5840 5839 5837 5834 5833 5834 5835 5835 5835 5835 5835 5834 5835 5835 5834 5834 5834 5834 5834 5834 5834 5835 5836 5836 5836 5837 5838
5916 5916 5916 5917 5917 5918 5918 5918 5918 5917 5916 5917 5916 5916 5916 5918 5919 5920 5920 5920 5919 5918 5918 5917 5916 5915 5914 5913 5912 5910 5908 5906 5906 5905 5904 5902 5900 5898 5896 5894 5893 5891 5889 5887 5885 5883 5881 5879 5876 5875 5873 5871 5869 5866 5864 5861 5858 5855 5852 5850 5849 5847 5845 5844 5842 5839 5838 5837 5837 5835 5833 5833 5833 5831 5829 5828 5828 5828 5828 5829 5830 5830 5830 5830 5830 5830 5829 5829 5828 5828 5828 5829 5830 5831 5832 5833 5834
5915 5915 5915 5916 5916 5917 5917 5918 5917 5916 5915 5915 5914 5914 5915 5917 5918 5918 5918 5918 5918 5917 5916 5916 5915 5914 5913 5912 5912 5910 5908 5906 5906 5904 5903 5901 5899 5897 5896 5894 5893 5891 5890 5888 5886 5883 5881 5878 5875 5873 5871 5869 5867 5864 5861 5859 5856 5853 5850 5847 5845 5843 5841 5839 5837 5835 5832 5831 5831 5829 5827 5826 5825 5825 5824 5824 5823 5822 5821 5821 5823 5824 5824 5824 5824 5825 5824 5824 5824 5823 5824 5824 5825 5826 5827 5828 5829
5913 5913 5914 5915 5915 5915 5916 5916 5916 5915 5915 5914 5913 5913 5914 5915 5917 5917 5917 5916 5916 5915 5915 5914 5913 5913 5912 5912 5911 5909 5907 5906 5905 5903 5902 5900 5898 5896 5895 5893 5892 5890 5889 5887 5885 5883 5880 5877 5874 5872 5869 5867 5864 5861 5859 5856 5854 5851 5848 5845 5842 5840 5837 5835 5833 5831 5828 5826 5825 5824 5822 5820 5819 5818 5817 5817 5817 5816 5815 5815 5815 5817 5818 5818 5818 5819 5819 5819 5819 5819 5819 5819 5820 5821 5821 5822 5824
5911 5912 5912 5913 5913 5913 5914 5914 5914 5914 5913 5912 5911 5911 5912 5913 5914 5915 5915 5914 5914 5914 5913 5912 5912 5911 5911 5910 5909 5907 5905 5904 5903 5901 5899 5897 5896 5894 5892 5891 5889 5888 5886 5884 5882 5879 5877 5875 5872 5869 5866 5864 5861 5858 5855 5853 5850 5848 5845 5842 5839 5836 5834 5831 5829 5826 5824 5821 5819 5818 5817 5815 5813 5812 5811 5810 5810 5810 5809 5809 5809 5810 5810 5811 5811 5812 5812 5812 5812 5813 5813 5814 5814 5815 5816 5817 5819
5909 5910 5910 5910 5911 5911 5911 5911 5911 5911 5911 5910 5909 5909 5910 5911 5912 5912 5913 5912 5912 5912 5911 5910 5910 5910 5909 5908 5907 5905 5903 5902 5900 5898 5896 5894 5893 5891 5890 5888 5886 5884 5882 5880 5878 5876 5874 5871 5868 5866 5863 5860 5857 5854 5851 5848 5846 5843 5841 5838 5835 5832 5830 5827 5824 5822 5819 5817 5814 5813 5811 5809 5808 5806 5805 5803 5802 5802 5802 5802 5803 5803 5803 5804 5804 5804 5804 5805 5805 5805 5807 5808 5809 5810 5811 5811 5813
5907 5908 5908 5909 5909 5909 5909 5909 5908 5909 5909 5908 5907 5907 5908 5909 5910 5910 5910 5910 5910 5910 5909 5908 5908 5908 5907 5906 5904 5902 5901 5899 5897 5895 5893 5891 5890 5888 5887 5884 5882 5880 5878 5876 5874 5872 5870 5868 5865 5862 5859 5856 5853 5850 5847 5844 5842 5839 5837 5834 5831 5828 5826 5823 5820 5817 5814 5811 5809 5807 5805 5803 5801 5800 5799 5797 5795 5795 5795 5795 5795 5796 5797 5797 5798 5798 5798 5798 5798 5798 5799 5801 5802 5804 5806 5806 5808
5906 5906 5906 5907 5907 5907 5907 5907 5906 5906 5906 5906 5905 5905 5906 5907 5908 5908 5908 5908 5908 5907 5907 5907 5906 5905 5904 5903 5901 5900 5898 5896 5894 5891 5889 5888 5886 5885 5883 5880 5878 5876 5875 5873 5871 5868 5866 5864 5861 5859 5856 5852 5849 5846 5843 5840 5838 5835 5833 5830 5827 5824 5821 5818 5815 5812 5808 5805 5803 5801 5799 5797 5795 5793 5792 5791 5789 5788 5788 5788 5788 5789 5790 5791 5791 5792 5792 5793 5792 5792 5792 5794 5796 5797 5799 5801 5802
5904 5904 5905 5905 5905 5905 5906 5905 5905 5904 5904 5903 5903 5903 5904 5905 5906 5906 5906 5906 5905 5905 5905 5904 5904 5903 5901 5900 5899 5897 5895 5893 5890 5888 5886 5885 5883 5881 5879 5877 5874 5873 5871 5869 5867 5865 5862 5860 5857 5855 5851 5848 5845 5842 5839 5836 5833 5831 5828 5826 5823 5820 5817 5814 5811 5807 5804 5800 5798 5796 5794 5792 5789 5786 5785 5784 5783 5783 5782 5781 5781 5782 5783 5783 5784 5784 5786 5787 5786 5786 5786 5788 5790 5791 5792 5795 5797
5903 5902 5903 5903 5903 5903 5904 5903 5903 5902 5902 5901 5901 5901 5902 5902 5903 5904 5903 5903 5903 5903 5903 5902 5901 5900 5899 5897 5896 5894 5892 5889 5886 5884 5883 5881 5879 5877 5876 5873 5871 5869 5867 5865 5863 5861 5858 5856 5853 5850 5846 5843 5840 5838 5835 5832 5829 5826 5823 5821 5819 5816 5813 5809 5806 5803 5800 5796 5793 5791 5788 5786 5784 5781 5779 5777 5777 5776 5776 5775 5775 5775 5776 5776 5777 5777 5778 5780 5780 5781 5781 5782 5784 5785 5786 5789 5791
5901 5901 5901 5901 5901 5901 5901 5901 5900 5900 5899 5899 5899 5899 5899 5900 5901 5901 5901 5900 5900 5900 5900 5899 5898 5897 5896 5894 5892 5891 5888 5885 5882 5880 5879 5877 5875 5873 5872 5870 5867 5866 5864 5862 5859 5856 5854 5852 5849 5846 5842 5839 5836 5834 5830 5827 5824 5821 5818 5815 5813 5810 5807 5804 5801 5798 5795 5792 5789 5786 5783 5781 5778 5776 5774 5772 5771 5770 5770 5769 5768 5768 5768 5769 5770 5770 5771 5772 5774 5775 5776 5777 5779 5780 5780 5783 5785
5899 5899 5899 5899 5899 5898 5898 5898 5898 5898 5897 5896 5896 5896 5897 5898 5898 5898 5898 5897 5897 5897 5897 5896 5895 5894 5892 5891 5889 5887 5884 5881 5879 5877 5876 5874 5871 5869 5868 5866 5864 5862 5860 5857 5855 5852 5850 5847 5844 5841 5838 5835 5832 5829 5826 5823 5819 5816 5813 5810 5807 5804 5801 5798 5795 5792 5790 5787 5784 5782 5779 5777 5774 5771 5769 5767 5766 5765 5764 5763 5762 5762 5762 5762 5763 5764 5765 5766 5767 5769 5770 5771 5773 5774 5775 5778 5779
5897 5897 5897 5897 5896 5896 5896 5896 5896 5895 5895 5894 5893 5893 5895 5896 5895 5895 5895 5895 5895 5894 5894 5893 5892 5891 5889 5887 5886 5884 5881 5878 5876 5875 5873 5870 5867 5866 5865 5863 5861 5859 5857 5854 5851 5848 5846 5842 5839 5836 5833 5831 5828 5825 5822 5819 5815 5812 5808 5805 5802 5798 5795 5792 5790 5787 5784 5782 5779 5777 5774 5772 5769 5766 5764 5762 5761 5759 5758 5758 5757 5756 5757 5757 5757 5758 5758 5759 5761 5763 5764 5765 5767 5769 5771 5773 5774
5894 5895 5895 5895 5894 5894 5893 5893 5893 5893 5892 5891 5890 5890 5892 5893 5892 5892 5892 5892 5892 5891 5891 5890 5889 5887 5886 5884 5883 5881 5878 5876 5874 5872 5870 5867 5864 5863 5862 5860 5858 5856 5854 5851 5848 5845 5841 5837 5834 5832 5829 5826 5823 5821 5818 5815 5812 5808 5805 5802 5798 5794 5790 5787 5785 5782 5780 5777 5775 5772 5769 5766 5764 5762 5760 5758 5756 5754 5752 5752 5751 5751 5751 5752 5752 5752 5752 5753 5754 5756 5757 5759 5761 5762 5765 5768 5769